Weather History for Jefferson City, MO

Change the Weather History Date:

Thursday, January 2, 2014

  Actual Average Record
Temperature  
Mean Temperature 10 °F -  
Max Temperature 17 °F 39 °F 73 °F (1997)
Min Temperature 3 °F 18 °F -8 °F (1928)
Degree Days  
Heating Degree Days 55    
Moisture  
Dew Point 4 °F    
Average Humidity 70    
Maximum Humidity 84    
Minimum Humidity 54    
Precipitation  
Precipitation 0.00 in - - ()
Sea Level Pressure  
Sea Level Pressure 30.36 in    
Wind  
Wind Speed 10 mph (NW)    
Max Wind Speed 16 mph    
Max Gust Speed 20 mph    
Visibility 9 miles    
Events Snow    
Averages and records for this station are not official NWS values.
T = Trace of Precipitation, MM = Missing Value Source: NWS Daily Summary

Daily Weather History Graph

Daily Weather History Graph

Search for Another Location

Airport:

Trip Planner

Search our weather history database for the weather conditions in past years. The results will help you decide how hot, cold, wet, or windy it might be!

Date:

Astronomy

Jan. 02, 2014 Rise Set
Actual Time 7:26 AM CST 4:59 PM CST
Civil Twilight 6:56 AM CST 5:28 PM CST
Nautical Twilight 6:23 AM CST 6:01 PM CST
Astronomical Twilight 5:51 AM CST 6:34 PM CST
Moon 8:09 AM CST (1/2) 6:55 PM CST (1/2)
Length of Visible Light 10h 31m
Length of Day
9h 32m
Waxing Crescent, 3% of the Moon is Illuminated
Jan 2
Waxing Crescent
Jan 7
First Quarter
Jan 15
Full
Jan 23
Last Quarter
Jan 30
New

Hourly Weather History & Observations

Time (CST) Temp. Windchill Dew Point Humidity Pressure Visibility Wind Dir Wind Speed Gust Speed Precip Events Conditions
12:53 AM 16.0 °F 4.4 °F 12.0 °F 84% 30.19 in 1.0 mi NW 9.2 mph - 0.00 in Snow Light Snow
1:27 AM 17.6 °F 6.4 °F 10.4 °F 73% 30.21 in 2.5 mi NW 9.2 mph - 0.00 in Snow Light Snow
1:53 AM 17.1 °F 5.0 °F 10.9 °F 77% 30.21 in 3.0 mi NW 10.4 mph - 0.00 in Snow Light Snow
2:33 AM 17.6 °F 5.7 °F 10.4 °F 73% 30.23 in 10.0 mi NW 10.4 mph - 0.00 in   Overcast
2:53 AM 16.0 °F 2.9 °F 10.0 °F 77% 30.23 in 10.0 mi NW 11.5 mph - 0.00 in   Overcast
3:53 AM 15.1 °F 0.5 °F 9.0 °F 77% 30.25 in 10.0 mi NW 13.8 mph - N/A   Overcast
4:51 AM 15.8 °F 2.1 °F 8.6 °F 73% 30.27 in 10.0 mi NW 12.7 mph - N/A   Overcast
4:53 AM 15.1 °F 1.8 °F 8.1 °F 74% 30.27 in 10.0 mi NW 11.5 mph - N/A   Overcast
5:05 AM 14.0 °F -2.0 °F 8.6 °F 79% 30.28 in 10.0 mi WNW 16.1 mph 19.6 mph N/A   Overcast
5:53 AM 12.9 °F -0.9 °F 7.0 °F 77% 30.29 in 10.0 mi WNW 11.5 mph - N/A   Overcast
6:31 AM 12.2 °F 0.7 °F 6.8 °F 79% 30.32 in 10.0 mi WNW 8.1 mph - N/A   Overcast
6:53 AM 12.9 °F -1.6 °F 6.1 °F 74% 30.32 in 10.0 mi NW 12.7 mph - N/A   Overcast
7:53 AM 10.9 °F -3.4 °F 5.0 °F 77% 30.34 in 10.0 mi NW 11.5 mph - 0.00 in   Mostly Cloudy
8:53 AM 9.0 °F -7.3 °F 3.0 °F 77% 30.36 in 10.0 mi WNW 13.8 mph - N/A   Clear
9:53 AM 9.0 °F -7.3 °F 1.9 °F 73% 30.39 in 10.0 mi WNW 13.8 mph - N/A   Clear
10:53 AM 10.0 °F -6.5 °F 1.9 °F 70% 30.40 in 10.0 mi WNW 15.0 mph - N/A   Clear
11:53 AM 10.9 °F -4.7 °F 1.9 °F 67% 30.39 in 10.0 mi WNW 13.8 mph - N/A   Overcast
12:53 PM 12.9 °F -0.9 °F 3.0 °F 65% 30.39 in 10.0 mi NW 11.5 mph - N/A   Clear
1:53 PM 14.0 °F -0.8 °F 3.0 °F 62% 30.39 in 10.0 mi NW 13.8 mph - N/A   Clear
2:53 PM 14.0 °F 0.5 °F 1.9 °F 59% 30.41 in 10.0 mi West 11.5 mph - N/A   Clear
3:53 PM 14.0 °F 1.2 °F -0.0 °F 54% 30.43 in 10.0 mi WNW 10.4 mph - N/A   Clear
4:53 PM 12.9 °F 1.6 °F -0.9 °F 54% 30.44 in 10.0 mi WNW 8.1 mph - N/A   Clear
5:53 PM 12.0 °F 5.9 °F -0.9 °F 56% 30.46 in 9.0 mi NW 3.5 mph - N/A   Clear
6:53 PM 10.9 °F 2.9 °F -0.9 °F 59% 30.48 in 10.0 mi NW 4.6 mph - N/A   Clear
7:53 PM 9.0 °F 0.6 °F -2.0 °F 61% 30.49 in 10.0 mi WNW 4.6 mph - N/A   Clear
8:53 PM 8.1 °F -2.0 °F -4.0 °F 58% 30.50 in 10.0 mi WNW 5.8 mph - N/A   Clear
9:53 PM 6.1 °F -2.8 °F -2.0 °F 69% 30.51 in 10.0 mi NNW 4.6 mph - N/A   Clear
10:53 PM 3.9 °F -3.4 °F -2.9 °F 73% 30.52 in 10.0 mi West 3.5 mph - N/A   Clear
11:53 PM 3.9 °F - -2.0 °F 76% 30.52 in 10.0 mi Calm Calm - N/A   Clear